Location: Killam
(52.7910°N, 111.8608°W)
Time: 16:47:17
(UTC+00:00)

Vanguard 2 Rocket - Pass Details

Date: 22 February 2026
Orbit: 553 x 3286 km, 32.9° (Epoch: 11 March)

Event Time Altitude Azimuth Distance (km) Brightness Sun altitude
Rises 17:33:14 0° 210° (SSW) 7,047 11.8 21.5°
Reaches altitude 10° 17:39:05 10° 200° (SSW) 6,181 11.8 22.0°
Maximum altitude 17:53:33 26° 153° (SSE) 4,829 14.0 23.2°
Drops below altitude 10° 18:06:17 10° 106° (ESE) 5,441 11.6 24.0°
Sets 18:10:54 0° 95° (E) 6,093 11.5 24.3°
